DELTA 1 DEB, 21345

Orbit data source: Space-Track

DELTA 1 DEB, 21345 is space debris in SSO originally from a launch on Thu, 12 Jun 1975 UTC launched from the Air Force Western Test Range (AFWTR). Debris objects in space refer to the collection of defunct objects orbiting the Earth. Examples of debris include non-operational satellites, rocket bodies, and fragments generated from explosions, collisions, or faulty payload assembly.

Loading next visibility...
Identifier
21345, 1975-052BP
Orbit
SSO
Country
Flag of USUS
Related business
Manufacturer
Unknown
Mission
Spacecraft
Bus & Motor
Unknown
Mass
Unknown
Launch date (UTC)
1975-06-12 (50 years ago)
Launch vehicle
Unknown
Launch site
Air Force Western Test Range (AFWTR)
Object type
Payload
Rocket body
Debris
Shape & HBR
Unknown shape, 0.1 m
Radar Cross Section
Small (<0.1 m²)

Expand to show TLE details & history
Last TLE update: 15 hours ago

TLE from 15 hours ago
0 DELTA 1 DEB
1 21345U 75052BP  25309.01550652  .00000136  00000-0  45068-3 0  9993
2 21345  99.4240 220.9474 0187604 205.1835 173.8084 13.11057157645246
Epoch: 2025-11-05T00:22Z
TLE epoch observation values (Epoch: 2025-11-05T00:22:19.763Z)
Latitude
18.9467°
Longitude
167.62058°
Altitude
1,363.085 km
Speed
7.111 km/s
True Right ascension
14h 30m 47s
True Declination
18° 50' 59"
Sunlit
Object was in daylight at epoch
Visualization orbit readout
Latitude
Unknown
Longitude
Unknown
Altitude
Unknown
Speed
Unknown
Apparent Right ascension
Unknown
Apparent Declination
Unknown
Sunlit
N/A
Visualization observer readout
Local Sidereal Time
11:40:21
Azimuth
Unknown
Elevation
Unknown
Doppler factor
Unknown
Orbital elements
Apogee altitude
1,358.888 km
Perigee altitude
1,073.934 km
Semi-major axis
7,594.548 km
Eccentricity
0.01876
Inclination
99.424°
RAAN
220.9474°
Arg. of periapsis
205.1835°
True anomaly
174.03497°
Mean anomaly
173.8084°
Eccentric anomaly
173.92221°
Mean motion
3.27937 °/min
Orbital period
109.78 mins
BSTAR
0.00045068
Loading maneuver chart data...
Computing Atmospheric mass density...
Loading historical data...
Loading historical data...
Loading historical data...
Loading historical data...
Loading historical data...
Loading historical data...
Loading historical data...

Documentation

Showing up to 5 results
|